Weather History for Rhinelander, WI

Change the Weather History Date:

Sunday, May 25, 2014

  Actual Average Record
Temperature  
Mean Temperature 63 °F 56 °F  
Max Temperature 80 °F 68 °F 89 °F (1911)
Min Temperature 46 °F 43 °F 25 °F (1913)
Degree Days  
Heating Degree Days 2 10  
Month to date heating degree days 369 333  
Since 1 July heating degree days 10336 8833  
Cooling Degree Days 0 1  
Month to date cooling degree days 0 3  
Year to date cooling degree days 0 4  
Growing Degree Days 14 (Base 50)    
Moisture  
Dew Point 45 °F    
Average Humidity 60    
Maximum Humidity 93    
Minimum Humidity 27    
Precipitation  
Precipitation 0.00 in 0.11 in 1.42 in (1971)
Month to date precipitation 2.71 2.77  
Year to date precipitation 10.94 8.96  
Snow  
Snow 0.00 in - T in (1961)
Month to date snowfall 0.1  
Since 1 July snowfall 110.3  
Snow Depth 0.00 in    
Sea Level Pressure  
Sea Level Pressure 30.05 in    
Wind  
Wind Speed 6 mph (SW)    
Max Wind Speed 17 mph    
Max Gust Speed 22 mph    
Visibility 10 miles    
Events      
T = Trace of Precipitation, MM = Missing Value Source: NWS Daily Summary

Daily Weather History Graph

Daily Weather History Graph

Search for Another Location

Airport:

Trip Planner

Search our weather history database for the weather conditions in past years. The results will help you decide how hot, cold, wet, or windy it might be!

Date:

Astronomy

May. 25, 2014 Rise Set
Actual Time 5:17 AM CDT 8:33 PM CDT
Civil Twilight 4:40 AM CDT 9:09 PM CDT
Nautical Twilight 3:53 AM CDT 9:56 PM CDT
Astronomical Twilight 2:55 AM CDT 10:55 PM CDT
Moon 3:32 AM CDT (5/25) 5:24 PM CDT (5/25)
Length of Visible Light 16h 28m
Length of Day
15h 16m
Waning Crescent, 10% of the Moon is Illuminated
May 25
Waning Crescent
May 28
New
Jun 5
First Quarter
Jun 12
Full
Jun 19
Last Quarter

Hourly Weather History & Observations

Time (CDT) Temp. Dew Point Humidity Pressure Visibility Wind Dir Wind Speed Gust Speed Precip Events Conditions
1:53 AM 50.0 °F 46.9 °F 89% 30.12 in 10.0 mi Calm Calm - N/A   Clear
2:53 AM 53.1 °F 46.9 °F 80% 30.12 in 10.0 mi Calm Calm - N/A   Clear
4:53 AM 50.0 °F 46.0 °F 86% 30.12 in 10.0 mi West 3.5 mph - N/A   Clear
5:53 AM 48.9 °F 46.0 °F 90% 30.12 in 10.0 mi Calm Calm - N/A   Clear
6:53 AM 57.0 °F 48.0 °F 72% 30.11 in 10.0 mi Calm Calm - N/A   Clear
7:53 AM 63.0 °F 45.0 °F 52% 30.11 in 10.0 mi WSW 9.2 mph - N/A   Clear
8:53 AM 66.9 °F 44.1 °F 44% 30.11 in 10.0 mi WSW 8.1 mph - N/A   Clear
10:53 AM 73.0 °F 41.0 °F 31% 30.09 in 10.0 mi WSW 5.8 mph - N/A   Clear
11:53 AM 75.0 °F 42.1 °F 31% 30.08 in 10.0 mi Variable 6.9 mph - N/A   Clear
12:53 PM 77.0 °F 42.1 °F 29% 30.06 in 10.0 mi SW 10.4 mph 18.4 mph N/A   Clear
1:53 PM 78.1 °F 41.0 °F 27% 30.05 in 10.0 mi Variable 4.6 mph - N/A   Clear
2:53 PM 79.0 °F 43.0 °F 28% 30.02 in 10.0 mi SSW 12.7 mph 19.6 mph N/A   Clear
3:53 PM 78.1 °F 42.1 °F 28% 30.01 in 10.0 mi SSW 11.5 mph - N/A   Clear
4:53 PM 79.0 °F 43.0 °F 28% 30.00 in 10.0 mi WSW 11.5 mph - N/A   Clear
5:53 PM 78.1 °F 45.0 °F 31% 29.99 in 10.0 mi WSW 10.4 mph - N/A   Clear
6:53 PM 75.9 °F 45.0 °F 33% 29.98 in 10.0 mi SSW 10.4 mph - N/A   Clear
7:53 PM 73.0 °F 45.0 °F 37% 29.98 in 10.0 mi SSW 5.8 mph - N/A   Clear
8:53 PM 69.1 °F 46.0 °F 44% 29.98 in 10.0 mi SSW 3.5 mph - N/A   Clear
9:53 PM 64.0 °F 48.0 °F 56% 29.99 in 10.0 mi Calm Calm - N/A   Clear
10:53 PM 66.9 °F 48.9 °F 52% 29.98 in 10.0 mi South 3.5 mph - N/A   Overcast
11:53 PM 60.1 °F 48.0 °F 64% 29.97 in 10.0 mi Calm Calm - N/A   Clear